Weather observations for the past three days for
Del Rio, Del Rio International Airport
Imperial (Metric)
Date Time (cdt) Wind (mph) Vis. (mi.) Weather Sky Cond. Temperature (ºF) Relative Humidity Wind Chill (°F) Heat Index (°F) Pressure Precipitation (in)
Air Dwpt 6 hour altimeter (in) sea level (mb) 1 hr 3 hr 6 hr
Max. Min.
15 21:53 SE 12 10.00 Fair CLR 97 59 28% 97 29.75 1005.9
15 20:53 SE 14 G 23 10.00 Fair CLR 98.1 59 27% 98 29.73 1005.6
15 19:53 SE 16 G 25 10.00 Fair CLR 100 60.1 27% 101 29.72 1005.2
15 18:53 SE 18 G 24 10.00 Fair CLR 102 60.1 104 96.1 25% 103 29.72 1004.9
15 17:53 SE 22 G 29 10.00 Fair and Breezy CLR 102.9 60.1 24% 104 29.73 1005.4
15 16:53 SE 20 G 31 10.00 Fair CLR 102.9 60.1 24% 104 29.76 1006.3
15 15:53 E 14 G 25 10.00 Fair CLR 102 61 26% 103 29.79 1007.3
15 14:53 S 21 G 28 10.00 Fair and Breezy CLR 100.9 62.1 28% 103 29.81 1008.1
15 13:53 SE 15 G 25 10.00 Fair CLR 99 63 31% 101 29.84 1009.2
15 12:53 SE 13 G 23 10.00 Fair CLR 96.1 64 97 81 35% 98 29.88 1010.4
15 11:53 SE 12 10.00 Fair CLR 93 66 41% 96 29.9 1011.2
15 10:53 SE 16 10.00 Fair CLR 90 66.9 47% 93 29.91 1011.6
15 09:53 SE 10 G 20 10.00 Fair CLR 87.1 69.1 55% 91 29.93 1012.3
15 08:53 E 13 10.00 A Few Clouds FEW070 82.9 69.1 63% 87 29.94 1012.5
15 07:53 E 8 10.00 Fair CLR 82 68 63% 85 29.92 1011.9
15 06:53 E 12 10.00 A Few Clouds FEW065 81 66 90 81 61% 83 29.9 1011.2
15 05:53 E 10 10.00 Overcast OVC060 82.9 64.9 55% 85 29.89 1010.8
15 04:53 SE 10 10.00 Partly Cloudy SCT060 84 64.9 53% 86 29.89 1010.8
15 03:53 SE 14 G 22 10.00 A Few Clouds FEW055 84.9 66 53% 87 29.88 1010.5
15 02:53 SE 16 G 24 10.00 Fair CLR 87.1 66.9 51% 90 29.88 1010.5
15 01:53 SE 16 G 30 10.00 Fair CLR 89.1 66.9 48% 92 29.88 1010.5
15 00:53 E 13 10.00 Fair CLR 90 63 102 90 41% 91 29.87 1010.2
14 23:53 E 8 10.00 Fair CLR 91.9 62.1 37% 93 29.88 1010.3
14 22:53 E 10 10.00 Fair CLR 93 60.1 33% 93 29.86 1009.9
14 21:53 E 10 10.00 Fair CLR 95 60.1 31% 95 29.84 1008.9
14 20:53 E 10 10.00 Fair CLR 98.1 60.1 28% 98 29.82 1008.4
14 19:53 SE 12 10.00 Fair CLR 100.9 59 25% 101 29.8 1007.9
14 18:53 SE 12 10.00 Fair CLR 102 59 104 96.1 24% 102 29.8 1007.7
14 17:53 E 13 10.00 A Few Clouds FEW090 102 60.1 25% 103 29.82 1008.4
14 16:53 Vrbl 7 G 21 10.00 Partly Cloudy SCT080 102 62.1 27% 104 29.84 1009.1
14 15:53 SE 15 G 25 10.00 Fair CLR 102.9 61 25% 104 29.85 1009.5
14 14:53 S 8 10.00 Partly Cloudy SCT070 100 64 31% 103 29.88 1010.4
14 13:53 E 8 G 21 10.00 Partly Cloudy SCT070 98.1 64.9 34% 101 29.9 1011.2
14 12:53 SE 9 10.00 Mostly Cloudy BKN060 96.1 66 97 82.9 37% 100 29.93 1012.0
14 11:53 SE 10 10.00 Fair CLR 95 66.9 40% 99 29.94 1012.5
14 10:53 SE 9 10.00 Fair CLR 91 69.1 49% 96 29.95 1012.7
14 09:53 S 13 10.00 Fair CLR 89.1 70 53% 94 29.95 1013.0
14 08:53 SE 8 10.00 Fair CLR 86 70 59% 91 29.96 1013.1
14 07:53 SE 10 10.00 Fair CLR 82.9 70 65% 87 29.95 1012.6
14 06:53 E 9 10.00 Fair CLR 82.9 70 91 82.9 65% 87 29.93 1012.2
14 05:53 E 12 10.00 A Few Clouds FEW080 84 70 63% 88 29.91 1011.6
14 04:53 E 9 10.00 Mostly Cloudy BKN075 84.9 70 61% 89 29.9 1011.3
14 03:53 E 8 10.00 Fair CLR 86 70 59% 91 29.9 1011.1
14 02:53 E 10 10.00 Fair CLR 88 69.1 54% 92 29.89 1010.8
14 01:53 SE 13 G 21 10.00 Fair CLR 89.1 68 50% 93 29.89 1010.7
14 00:53 E 13 G 21 10.00 Fair CLR 91 66.9 102.9 91 45% 94 29.88 1010.5
13 23:53 E 10 10.00 Fair CLR 93 64.9 40% 95 29.87 1010.2
13 22:53 E 10 10.00 Fair CLR 93.9 64.9 38% 96 29.86 1009.9
13 21:53 E 8 10.00 Fair CLR 97 64 34% 99 29.84 1009.2
13 20:53 E 9 10.00 Fair CLR 99 61 29% 100 29.83 1008.8
13 19:53 SE 7 10.00 Fair CLR 102 62.1 27% 104 29.82 1008.5
13 18:53 E 9 10.00 A Few Clouds FEW080 102 63 104 97 28% 104 29.82 1008.5
13 17:53 E 9 10.00 Fair CLR 102.9 64 28% 106 29.83 1008.7
13 16:53 E 10 10.00 Fair CLR 102.9 62.1 26% 105 29.84 1009.1
13 15:53 SE 7 G 17 10.00 Partly Cloudy SCT070 100.9 63 29% 103 29.87 1010.0
13 13:53 SE 9 G 20 10.00 Fair CLR 99 68 37% 105 29.9 1011.3
13 12:53 S 12 G 21 10.00 Fair CLR 98.1 68 98.1 80.1 38% 103 29.92 1012.0
13 11:53 S 14 10.00 Fair CLR 95 69.1 43% 101 29.94 1012.4
13 10:53 SE 17 G 22 10.00 Fair CLR 91.9 69.1 47% 97 29.94 1012.6
Date Time (cdt) Wind (mph) Vis. (mi.) Weather Sky Cond. Air Dwpt Max. Min. Relative Humidity Wind Chill (°F) Heat Index (°F) altimeter (in) sea level (mb) 1 hr 3 hr 6 hr
6 hour
Temperature (ºF) Pressure Precipitation (in)